Location: Walton
(43.6794°N, 81.3017°W)
Time: 02:16:55
(UTC+00:00)

FengYun 1-2 T - Pass Details

Date: 09 December 2025
Orbit: 845 x 879 km, 98.8° (Epoch: 17 January)

Event Time Altitude Azimuth Distance (km) Brightness Sun altitude
Rises 10:39:23 0° 9° (N) 3,485 7.4 -22.3°
Reaches altitude 10° 10:41:49 10° 6° (N) 2,544 6.6 -21.8°
Maximum altitude 10:47:20 55° 290° (WNW) 1,046 4.3 -20.9°
Drops below altitude 10° 10:52:48 10° 213° (SSW) 2,526 6.5 -19.9°
Sets 10:55:13 0° 210° (SSW) 3,458 7.2 -19.5°
